軌道要素
Epoch 2013 Dec. 14.0 TT = JDT 2456640.5
T 2013 Dec. 9.30114 TT MPC
q 1.8470731 (2000.0) P Q
z +0.0179768 Peri. 59.48414 +0.20397094 -0.84167024
+/-0.0000000 Node 325.96144 -0.86134166 +0.08844210
e 0.9667955 Incl. 116.71780 +0.46528098 +0.53269992
From 153 observations 2013 Aug. 3-2014 June 3, mean residual 0".5.
|